Regional Weather Roundup
Issued by NWS Little Rock, AR

Home | Current Version | Previous Version | Graphics & Text | Print | Product List | Glossary On
Versions: 1 2 3 4 5 6 7 8 9 10 11 12 13 14 15 16 17 18 19 20 21 22 23 24 25 26 27 28 29 30 31 32 33 34 35 36 37 38 39 40 41 42 43 44 45 46 47 48 49 50
000
ASUS44 KLZK 270505
RWRLZK

WEATHER ROUNDUP FOR ARKANSAS
NATIONAL WEATHER SERVICE LITTLE ROCK AR
1200 AM CDT WED AUG 27 2014

NOTE: "FAIR" INDICATES FEW OR NO CLOUDS BELOW 12,000 FEET WITH NO
SIGNIFICANT WEATHER AND/OR OBSTRUCTIONS TO VISIBILITY.

ARZ001-003-010-029-270600-
NORTHWEST ARKANSAS

CITY           SKY/WX    TMP DP  RH WIND       PRES   REMARKS
FAYETTEVILLE   CLEAR     73  69  87 S3        30.10S
FORT SMITH     CLEAR     81  72  74 E5        30.04S HX  85
HARRISON       CLEAR     75  72  90 SE6       30.10S
BENTONVILLE    PTCLDY    79  64  61 CALM      30.11S
ROGERS         PTCLDY    78  67  68 CALM      30.11S
SILOAM SPGS      N/A     73  64  73 N6        30.11R
HIGHFILL       PTCLDY    75  65  70 CALM      30.10S
$$

ARZ004-005-016-270600-
NORTH CENTRAL ARKANSAS

CITY           SKY/WX    TMP DP  RH WIND       PRES   REMARKS
BATESVILLE     CLEAR     79  72  78 CALM      30.06S
FLIPPIN        CLEAR     79  66  65 CALM      30.08S
MTN HOME       CLEAR     78  69  73 SE3       30.09R
$$

ARZ040-041-270600-
WEST CENTRAL ARKANSAS

CITY           SKY/WX    TMP DP  RH WIND       PRES   REMARKS
MENA           CLEAR     72  72 100 CALM      30.09F
MOUNT IDA      PTCLDY    75  73  93 CALM      30.05F FOG
$$

ARZ009-017-025-026-028-270600-
NORTHEAST ARKANSAS

CITY           SKY/WX    TMP DP  RH WIND       PRES   REMARKS
CORNING          N/A     77  73  88 CALM      30.07R
JONESBORO      CLEAR     74  70  87 CALM      30.05S
NEWPORT        CLEAR     79  73  81 CALM      30.06S
WALNUT RIDGE   CLEAR     75  70  83 N3        30.06R
BLYTHEVILLE    CLEAR     76  74  93 E5        30.06S
$$

ARZ022-023-033-042-044-270600-
CENTRAL ARKANSAS

CITY           SKY/WX    TMP DP  RH WIND       PRES   REMARKS
LITTLE ROCK    MOCLDY    82  72  71 CALM      30.05S HX  87
N LITTLE ROCK  MOCLDY    80  74  83 SW3       30.05S
JACKSONVILLE   MOCLDY    77  74  90 CALM      30.05S
SEARCY         PTCLDY    78  75  90 CALM      30.06S
HOT SPRINGS    PTCLDY    79  75  87 CALM      30.06F
RUSSELLVILLE   CLEAR     75  72  90 CALM      30.06S
CLINTON        FAIR      73  73 100 CALM      30.08S FOG
$$

ARZ036-270600-
EAST ARKANSAS

CITY           SKY/WX    TMP DP  RH WIND       PRES   REMARKS
WEST MEMPHIS   CLEAR     76  73  91 CALM      30.04S
$$

ARZ050-053-066-070-073-270600-
SOUTHWEST ARKANSAS

CITY           SKY/WX    TMP DP  RH WIND       PRES   REMARKS
ARKADELPHIA    FAIR      76  76 100 CALM      30.05S
CAMDEN         CLEAR     72  70  94 CALM      30.03S FOG
TEXARKANA      MOCLDY    74  72  93 NE3       30.04S
EL DORADO      CLEAR     73  72  96 CALM      30.04R
DE QUEEN       PTCLDY    73  72  96 CALM      30.04R
$$

ARZ056-057-069-270600-
SOUTHEAST ARKANSAS

CITY           SKY/WX    TMP DP  RH WIND       PRES   REMARKS
PINE BLUFF     PTCLDY    74  72  93 NW3       30.04F
STUTTGART      PTCLDY    81  72  74 CALM      30.05S
MONTICELLO     CLEAR     73  69  87 CALM      30.04S

$$




USA.gov is the U.S. government's official web portal to all federal, state and local government web resources and services.